Regional Weather Roundup
Issued by NWS

Home | Current Version | Previous Version | Text Only | Print | Product List | Glossary Off
Versions: 1 2 3 4 5 6 7 8 9 10 11 12 13 14 15 16 17 18 19 20 21 22 23 24 25 26 27 28 29 30 31 32 33 34 35 36 37 38 39 40 41 42 43 44 45 46 47 48 49 50

000
ASUS45 KSLC 241710
RWRUT

UTAH REGIONAL WEATHER ROUNDUP
NATIONAL WEATHER SERVICE SALT LAKE CITY UT
1100 AM MDT SAT SEP 24 2016

UTZ001>011-023>025-241800-

NORTHERN UTAH

CITY           SKY/WX    TMP DP  RH WIND       PRES   REMARKS
BRIGHAM CITY     N/A     52  42  69 NW5       30.23S
HILL AFB       PTSUNNY   51  43  74 N5        30.24R
LOGAN          CLOUDY    49  46  90 CALM      30.22R
OGDEN          CLOUDY    53  43  68 CALM      30.23R
PROVO AIRPORT  LGT RAIN  49  46  90 E5        30.26R
SALT LAKE CITY CLOUDY    52  47  83 CALM      30.23R
VERNAL         CLOUDY    47  41  80 E6        30.16R
WENDOVER       SUNNY     59  37  44 NW23G29   30.25R
HEBER CITY     CLOUDY    45  39  81 CALM      30.21R
WEST JORDAN    CLOUDY    49  47  93 CALM      30.25R

$$

UTZ012>022-026-027-241800-

SOUTHERN/CENTRAL UTAH

CITY           SKY/WX    TMP DP  RH WIND       PRES   REMARKS
BLANDING       CLOUDY    50  37  60 CALM      30.30R
BRYCE CANYON   PTSUNNY   50  32  50 N13       30.30R
CEDAR CITY     SUNNY     58  36  43 VRB7      30.24S
DELTA          SUNNY     54  41  62 CALM      30.27R
MILFORD        SUNNY     56  39  53 CALM      30.24S
MOAB/CYNLANDS  SUNNY     60  37  42 SW12      30.15S
PRICE          MOSUNNY   52  38  58 VRB3      30.19R
ST GEORGE      CLOUDY    63  37  39 S7        30.19S

$$

REGIONAL REPORTS     COLORADO/ARIZONA

CITY           SKY/WX    TMP DP  RH WIND       PRES   REMARKS
CRAIG, CO      LGT RAIN  45  38  76 SW15      30.17R
GRAND JUNCTION CLOUDY    52  43  71 SE5       30.18R
RIFLE          LGT RAIN  43  42  97 E10       30.20R
MONTROSE       CLOUDY    47  40  76 W5        30.23R
CORTEZ         CLOUDY    51  37  58 CALM      30.23R
PAGE, AZ       SUNNY     62  33  33 CALM      30.19R
GRAND CANYON   SUNNY     57  30  35 VRB7      30.26S
KINGMAN        SUNNY     71  32  23 NE5       30.17R
FLAGSTAFF      SUNNY     55  27  34 MISG      30.26R

$$

REGIONAL REPORTS    NEVADA/IDAHO/WYOMING

CITY           SKY/WX    TMP DP  RH WIND       PRES   REMARKS
LAS VEGAS, NV  SUNNY     74  26  16 NE7       30.13S
ELY            SUNNY     54  35  48 N9        30.32R
ELKO           SUNNY     57  35  43 VRB6      30.33R
POCATELLO, ID  CLOUDY    49  43  80 SW17      30.24R
BURLEY         SUNNY     53  42  66 W17G30    30.23R
EVANSTON, WY   CLOUDY    37  35  92 W14       30.23R WCI  28
ROCK SPRINGS   LGT RAIN  38  37  97 W18       30.13R WCI  28

$$



USA.gov is the U.S. government's official web portal to all federal, state and local government web resources and services.